Time,TemperatureF,DewpointF,PressureIn,WindDirection,WindDirectionDegrees,WindSpeedMPH,WindSpeedGustMPH,Humidity,HourlyPrecipIn,Conditions,Clouds,dailyrainin,SoftwareType,DateUTC
2017-05-26 00:00:00,49.3,45.0,29.77,WNW,290,11.0,19.0,85,0.17,,---,0.29,VWS V14.01,2017-05-26 04:00:00,
2017-05-26 00:05:00,49.2,44.9,29.76,NNW,338,2.0,18.0,85,0.09,,---,0.00,VWS V14.01,2017-05-26 04:05:00,
2017-05-26 00:10:00,49.2,44.9,29.76,WSW,252,4.0,23.0,85,0.09,,---,0.00,VWS V14.01,2017-05-26 04:10:00,
2017-05-26 00:15:00,49.1,44.8,29.76,NNW,344,4.0,24.0,85,0.09,,---,0.00,VWS V14.01,2017-05-26 04:15:00,
2017-05-26 00:20:00,49.0,44.7,29.75,West,259,7.0,24.0,85,0.09,,---,0.00,VWS V14.01,2017-05-26 04:20:00,
2017-05-26 00:25:00,49.0,44.7,29.75,WNW,286,3.0,24.0,85,0.09,,---,0.00,VWS V14.01,2017-05-26 04:25:00,
2017-05-26 00:30:00,48.9,44.6,29.74,WNW,298,3.0,24.0,85,0.09,,---,0.00,VWS V14.01,2017-05-26 04:30:00,
2017-05-26 00:35:00,48.8,44.5,29.73,North,355,8.0,12.0,85,0.05,,---,0.01,VWS V14.01,2017-05-26 04:35:00,
2017-05-26 00:36:00,48.8,44.5,29.73,NNW,348,10.0,12.0,85,0.05,,---,0.01,VWS V14.01,2017-05-26 04:36:00,
2017-05-26 00:41:00,48.6,44.3,29.73,NW,319,16.0,18.0,85,0.05,,---,0.01,VWS V14.01,2017-05-26 04:41:00,
2017-05-26 00:46:00,48.6,44.3,29.73,WNW,293,7.0,18.0,85,0.05,,---,0.01,VWS V14.01,2017-05-26 04:46:00,
2017-05-26 00:51:00,48.5,44.2,29.73,WNW,298,3.0,18.0,85,0.05,,---,0.01,VWS V14.01,2017-05-26 04:51:00,
2017-05-26 00:56:00,48.5,44.2,29.73,WSW,250,1.0,18.0,85,0.06,,---,0.02,VWS V14.01,2017-05-26 04:56:00,
2017-05-26 01:01:00,48.5,44.2,29.73,NW,304,10.0,18.0,85,0.06,,---,0.02,VWS V14.01,2017-05-26 05:01:00,
2017-05-26 01:06:00,48.4,44.1,29.73,North,351,11.0,16.0,85,0.02,,---,0.02,VWS V14.01,2017-05-26 05:06:00,
2017-05-26 01:11:00,48.4,44.1,29.73,South,171,1.0,17.0,85,0.02,,---,0.02,VWS V14.01,2017-05-26 05:11:00,
2017-05-26 01:16:00,48.3,44.0,29.73,North,9,5.0,17.0,85,0.02,,---,0.02,VWS V14.01,2017-05-26 05:16:00,
2017-05-26 01:21:00,48.2,43.9,29.73,NNW,344,11.0,17.0,85,0.02,,---,0.02,VWS V14.01,2017-05-26 05:21:00,
2017-05-26 01:26:00,48.2,43.9,29.72,West,263,8.0,17.0,85,0.02,,---,0.02,VWS V14.01,2017-05-26 05:26:00,
2017-05-26 01:31:00,48.1,43.8,29.72,WNW,297,4.0,17.0,85,0.03,,---,0.03,VWS V14.01,2017-05-26 05:31:00,
2017-05-26 01:36:00,48.0,43.7,29.71,North,5,11.0,12.0,85,0.02,,---,0.03,VWS V14.01,2017-05-26 05:36:00,
2017-05-26 01:41:00,47.9,43.6,29.72,NW,304,4.0,16.0,85,0.02,,---,0.03,VWS V14.01,2017-05-26 05:41:00,
2017-05-26 01:46:00,47.8,43.5,29.72,West,271,12.0,16.0,85,0.02,,---,0.03,VWS V14.01,2017-05-26 05:46:00,
2017-05-26 01:51:00,47.7,43.4,29.71,NW,313,3.0,19.0,85,0.02,,---,0.03,VWS V14.01,2017-05-26 05:51:00,
2017-05-26 01:56:00,47.7,43.4,29.71,WSW,240,5.0,19.0,85,0.02,,---,0.03,VWS V14.01,2017-05-26 05:56:00,
2017-05-26 02:01:00,47.6,43.3,29.70,NW,325,3.0,19.0,85,0.02,,---,0.03,VWS V14.01,2017-05-26 06:01:00,
2017-05-26 02:06:00,47.5,43.2,29.69,West,259,4.0,16.0,85,0.01,,---,0.03,VWS V14.01,2017-05-26 06:06:00,
2017-05-26 02:11:00,47.4,43.1,29.70,WSW,242,9.0,16.0,85,0.01,,---,0.03,VWS V14.01,2017-05-26 06:11:00,
2017-05-26 02:16:00,47.3,43.0,29.69,WNW,297,10.0,17.0,85,0.02,,---,0.04,VWS V14.01,2017-05-26 06:16:00,
2017-05-26 02:21:00,47.3,43.0,29.69,WSW,250,5.0,17.0,85,0.02,,---,0.04,VWS V14.01,2017-05-26 06:21:00,
2017-05-26 02:26:00,47.2,42.9,29.68,NW,311,10.0,17.0,85,0.02,,---,0.04,VWS V14.01,2017-05-26 06:26:00,
2017-05-26 02:31:00,47.1,42.8,29.68,West,262,3.0,19.0,85,0.02,,---,0.04,VWS V14.01,2017-05-26 06:31:00,
2017-05-26 02:36:00,47.1,42.8,29.67,NNW,341,6.0,19.0,85,0.01,,---,0.04,VWS V14.01,2017-05-26 06:36:00,
2017-05-26 02:41:00,47.0,42.7,29.67,WSW,256,7.0,19.0,85,0.01,,---,0.04,VWS V14.01,2017-05-26 06:41:00,
2017-05-26 02:46:00,47.0,42.7,29.67,WSW,238,13.0,19.0,85,0.01,,---,0.04,VWS V14.01,2017-05-26 06:46:00,
2017-05-26 02:51:00,47.0,42.7,29.66,WNW,288,4.0,21.0,85,0.01,,---,0.04,VWS V14.01,2017-05-26 06:51:00,
2017-05-26 02:56:00,46.9,42.6,29.65,North,355,2.0,21.0,85,0.01,,---,0.04,VWS V14.01,2017-05-26 06:56:00,
2017-05-26 03:01:00,46.9,42.6,29.65,North,5,11.0,21.0,85,0.01,,---,0.04,VWS V14.01,2017-05-26 07:01:00,
2017-05-26 03:06:00,46.9,42.6,29.64,WNW,293,12.0,19.0,85,0.02,,---,0.05,VWS V14.01,2017-05-26 07:06:00,
2017-05-26 03:11:00,46.9,42.6,29.64,West,269,23.0,23.0,85,0.02,,---,0.05,VWS V14.01,2017-05-26 07:11:00,
2017-05-26 03:16:00,46.9,42.6,29.64,WNW,300,12.0,23.0,85,0.02,,---,0.05,VWS V14.01,2017-05-26 07:16:00,
2017-05-26 03:21:00,46.9,42.6,29.64,WNW,293,10.0,23.0,85,0.02,,---,0.05,VWS V14.01,2017-05-26 07:21:00,
2017-05-26 03:26:00,47.0,42.7,29.63,West,277,18.0,23.0,85,0.02,,---,0.05,VWS V14.01,2017-05-26 07:26:00,
2017-05-26 03:31:00,47.0,42.7,29.63,NW,316,5.0,23.0,85,0.03,,---,0.06,VWS V14.01,2017-05-26 07:31:00,
2017-05-26 03:36:00,47.1,42.8,29.62,WNW,301,11.0,21.0,85,0.03,,---,0.07,VWS V14.01,2017-05-26 07:36:00,
2017-05-26 03:40:00,47.1,42.8,29.62,West,281,6.0,21.0,85,0.03,,---,0.07,VWS V14.01,2017-05-26 07:40:00,
2017-05-26 03:45:00,47.1,42.8,29.61,NW,321,6.0,21.0,85,0.04,,---,0.08,VWS V14.01,2017-05-26 07:45:00,
2017-05-26 03:50:00,47.1,42.8,29.61,NW,304,5.0,21.0,85,0.04,,---,0.08,VWS V14.01,2017-05-26 07:50:00,
2017-05-26 03:55:00,47.2,42.9,29.60,WNW,287,9.0,25.0,85,0.04,,---,0.08,VWS V14.01,2017-05-26 07:55:00,
2017-05-26 04:01:00,47.2,42.9,29.60,NNW,335,4.0,25.0,85,0.06,,---,0.10,VWS V14.01,2017-05-26 08:01:00,
2017-05-26 04:06:00,47.2,42.9,29.60,West,266,3.0,14.0,85,0.06,,---,0.10,VWS V14.01,2017-05-26 08:06:00,
2017-05-26 04:10:00,47.1,42.8,29.59,WSW,246,7.0,20.0,85,0.07,,---,0.11,VWS V14.01,2017-05-26 08:10:00,
2017-05-26 04:15:00,47.1,42.8,29.60,West,272,7.0,20.0,85,0.09,,---,0.13,VWS V14.01,2017-05-26 08:15:00,
2017-05-26 04:20:00,47.1,42.8,29.60,WNW,294,12.0,20.0,85,0.13,,---,0.17,VWS V14.01,2017-05-26 08:20:00,
2017-05-26 04:25:00,47.1,42.8,29.59,West,270,9.0,20.0,85,0.15,,---,0.19,VWS V14.01,2017-05-26 08:25:00,
2017-05-26 04:30:00,47.2,42.9,29.60,North,350,2.0,20.0,85,0.15,,---,0.19,VWS V14.01,2017-05-26 08:30:00,
2017-05-26 04:36:00,47.2,42.9,29.59,NW,315,6.0,16.0,85,0.14,,---,0.21,VWS V14.01,2017-05-26 08:36:00,
2017-05-26 04:41:00,47.2,42.9,29.59,NW,323,11.0,16.0,85,0.27,,---,0.34,VWS V14.01,2017-05-26 08:41:00,
2017-05-26 04:46:00,47.2,42.9,29.62,NNW,341,4.0,16.0,85,0.34,,---,0.41,VWS V14.01,2017-05-26 08:46:00,
2017-05-26 04:51:00,47.1,42.8,29.62,NW,314,8.0,16.0,85,0.37,,---,0.44,VWS V14.01,2017-05-26 08:51:00,
2017-05-26 04:56:00,47.1,42.8,29.61,NNW,348,3.0,16.0,85,0.40,,---,0.47,VWS V14.01,2017-05-26 08:56:00,
2017-05-26 05:01:00,47.1,42.8,29.61,WSW,255,0.0,16.0,85,0.44,,---,0.51,VWS V14.01,2017-05-26 09:01:00,
2017-05-26 05:06:00,47.1,42.8,29.61,West,271,8.0,13.0,85,0.44,,---,0.54,VWS V14.01,2017-05-26 09:06:00,
2017-05-26 05:11:00,47.1,42.8,29.61,WNW,290,7.0,15.0,85,0.48,,---,0.58,VWS V14.01,2017-05-26 09:11:00,
2017-05-26 05:16:00,47.1,42.8,29.61,WSW,250,7.0,15.0,85,0.51,,---,0.61,VWS V14.01,2017-05-26 09:16:00,
2017-05-26 05:21:00,47.1,42.8,29.61,NNW,329,8.0,17.0,85,0.54,,---,0.64,VWS V14.01,2017-05-26 09:21:00,
2017-05-26 05:25:00,47.2,42.9,29.61,SSW,209,4.0,17.0,85,0.57,,---,0.67,VWS V14.01,2017-05-26 09:25:00,
2017-05-26 05:30:00,47.2,42.9,29.62,NW,315,6.0,17.0,85,0.62,,---,0.72,VWS V14.01,2017-05-26 09:30:00,
2017-05-26 05:35:00,47.2,42.9,29.62,NW,317,4.0,14.0,85,0.56,,---,0.76,VWS V14.01,2017-05-26 09:35:00,
2017-05-26 05:40:00,47.2,42.9,29.61,NW,310,7.0,14.0,85,0.60,,---,0.80,VWS V14.01,2017-05-26 09:40:00,
2017-05-26 05:45:00,47.2,42.9,29.61,WNW,294,3.0,14.0,85,0.65,,---,0.85,VWS V14.01,2017-05-26 09:45:00,
2017-05-26 05:50:00,47.1,42.8,29.60,NNW,328,5.0,19.0,85,0.68,,---,0.88,VWS V14.01,2017-05-26 09:50:00,
2017-05-26 05:55:00,47.1,42.8,29.60,West,281,2.0,19.0,85,0.73,,---,0.93,VWS V14.01,2017-05-26 09:55:00,
2017-05-26 06:00:00,47.1,42.8,29.61,North,349,1.0,19.0,85,0.80,,---,1.00,VWS V14.01,2017-05-26 10:00:00,
2017-05-26 06:05:00,47.1,42.8,29.63,West,281,2.0,9.0,85,0.54,,---,1.06,VWS V14.01,2017-05-26 10:05:00,
2017-05-26 06:10:00,47.1,42.8,29.63,NW,317,2.0,9.0,85,0.59,,---,1.11,VWS V14.01,2017-05-26 10:10:00,
2017-05-26 06:15:00,47.0,42.7,29.63,WNW,303,4.0,13.0,85,0.64,,---,1.16,VWS V14.01,2017-05-26 10:15:00,
2017-05-26 06:20:00,47.0,42.7,29.63,WNW,288,4.0,13.0,85,0.67,,---,1.19,VWS V14.01,2017-05-26 10:20:00,
2017-05-26 06:26:00,46.9,42.6,29.63,WNW,292,2.0,16.0,85,0.74,,---,1.26,VWS V14.01,2017-05-26 10:26:00,
2017-05-26 06:30:00,46.9,42.6,29.63,NE,39,5.0,16.0,85,0.78,,---,1.30,VWS V14.01,2017-05-26 10:30:00,
2017-05-26 06:36:00,46.8,42.5,29.62,NW,309,4.0,14.0,85,0.60,,---,1.33,VWS V14.01,2017-05-26 10:36:00,
2017-05-26 06:41:00,46.8,42.5,29.62,West,259,10.0,16.0,85,0.62,,---,1.35,VWS V14.01,2017-05-26 10:41:00,
2017-05-26 06:46:00,46.8,42.5,29.61,NNW,346,3.0,16.0,85,0.62,,---,1.35,VWS V14.01,2017-05-26 10:46:00,
2017-05-26 06:51:00,46.8,42.5,29.61,WSW,254,4.0,16.0,85,0.62,,---,1.35,VWS V14.01,2017-05-26 10:51:00,
2017-05-26 06:56:00,46.8,42.5,29.61,WNW,287,1.0,16.0,85,0.62,,---,1.35,VWS V14.01,2017-05-26 10:56:00,
2017-05-26 07:01:00,46.8,42.5,29.60,West,265,2.0,16.0,85,0.62,,---,1.35,VWS V14.01,2017-05-26 11:01:00,
2017-05-26 07:06:00,46.9,42.6,29.60,WNW,289,4.0,17.0,85,0.33,,---,1.35,VWS V14.01,2017-05-26 11:06:00,
2017-05-26 07:11:00,46.9,42.6,29.59,West,264,7.0,17.0,85,0.34,,---,1.36,VWS V14.01,2017-05-26 11:11:00,
2017-05-26 07:16:00,46.9,42.6,29.57,WNW,287,5.0,17.0,85,0.34,,---,1.36,VWS V14.01,2017-05-26 11:16:00,
2017-05-26 07:21:00,47.1,42.8,29.58,WNW,296,0.0,18.0,85,0.35,,---,1.37,VWS V14.01,2017-05-26 11:21:00,
2017-05-26 07:31:00,47.3,43.0,29.58,West,275,8.0,18.0,85,0.36,,---,1.38,VWS V14.01,2017-05-26 11:31:00,
2017-05-26 07:36:00,47.3,43.0,29.58,West,264,4.0,9.0,85,0.07,,---,1.38,VWS V14.01,2017-05-26 11:36:00,
2017-05-26 07:41:00,47.4,43.1,29.57,WSW,258,2.0,17.0,85,0.07,,---,1.38,VWS V14.01,2017-05-26 11:41:00,
2017-05-26 07:46:00,47.6,43.3,29.56,SW,224,8.0,19.0,85,0.07,,---,1.38,VWS V14.01,2017-05-26 11:46:00,
2017-05-26 07:51:00,47.9,43.6,29.56,NW,321,2.0,19.0,85,0.07,,---,1.38,VWS V14.01,2017-05-26 11:51:00,
2017-05-26 07:56:00,48.0,43.7,29.56,WNW,283,7.0,19.0,85,0.07,,---,1.38,VWS V14.01,2017-05-26 11:56:00,
2017-05-26 08:01:00,48.2,43.9,29.56,NW,319,9.0,19.0,85,0.07,,---,1.38,VWS V14.01,2017-05-26 12:01:00,
2017-05-26 08:06:00,48.1,43.8,29.56,NW,323,9.0,12.0,85,0.03,,---,1.38,VWS V14.01,2017-05-26 12:06:00,
2017-05-26 08:11:00,47.8,43.5,29.56,North,355,5.0,13.0,85,0.03,,---,1.38,VWS V14.01,2017-05-26 12:11:00,
2017-05-26 08:16:00,47.7,43.7,29.57,NE,39,3.0,13.0,86,0.03,,---,1.38,VWS V14.01,2017-05-26 12:16:00,
2017-05-26 08:21:00,47.5,43.5,29.57,WSW,245,13.0,15.0,86,0.03,,---,1.38,VWS V14.01,2017-05-26 12:21:00,
2017-05-26 08:26:00,47.4,43.4,29.56,WNW,284,3.0,15.0,86,0.03,,---,1.38,VWS V14.01,2017-05-26 12:26:00,
2017-05-26 08:31:00,47.4,43.4,29.57,West,279,9.0,15.0,86,0.03,,---,1.38,VWS V14.01,2017-05-26 12:31:00,
2017-05-26 08:36:00,47.5,43.2,29.56,WNW,294,4.0,14.0,85,0.00,,---,1.38,VWS V14.01,2017-05-26 12:36:00,
2017-05-26 08:41:00,47.4,43.1,29.56,NNW,331,4.0,15.0,85,0.00,,---,1.38,VWS V14.01,2017-05-26 12:41:00,
2017-05-26 08:46:00,47.4,43.1,29.56,NW,315,6.0,15.0,85,0.00,,---,1.38,VWS V14.01,2017-05-26 12:46:00,
2017-05-26 08:54:00,0.0,0.0,0.09,North,0,0.0,0.0,0,0.00,,---,1.38,VWS V14.01,2017-05-26 12:54:00,
2017-05-26 08:59:00,47.1,43.1,29.54,WNW,292,10.0,19.0,86,0.00,,---,1.38,VWS V14.01,2017-05-26 12:59:00,
2017-05-26 09:04:00,47.2,42.9,29.54,WNW,290,16.0,17.0,85,0.00,,---,1.38,VWS V14.01,2017-05-26 13:04:00,
2017-05-26 09:09:00,47.3,43.0,29.54,WNW,296,8.0,18.0,85,0.00,,---,1.38,VWS V14.01,2017-05-26 13:09:00,
2017-05-26 09:14:00,47.5,43.2,29.55,West,278,6.0,18.0,85,0.00,,---,1.38,VWS V14.01,2017-05-26 13:14:00,
2017-05-26 09:19:00,47.7,43.4,29.54,NNW,347,3.0,18.0,85,0.01,,---,1.39,VWS V14.01,2017-05-26 13:19:00,
2017-05-26 09:24:00,48.0,43.7,29.54,West,259,8.0,18.0,85,0.01,,---,1.39,VWS V14.01,2017-05-26 13:24:00,
2017-05-26 09:30:00,48.1,43.8,29.55,WNW,285,4.0,18.0,85,0.01,,---,1.39,VWS V14.01,2017-05-26 13:30:00,
2017-05-26 09:35:00,48.2,43.9,29.54,West,270,8.0,10.0,85,0.01,,---,1.39,VWS V14.01,2017-05-26 13:35:00,
2017-05-26 09:40:00,48.4,44.1,29.54,West,280,1.0,16.0,85,0.01,,---,1.39,VWS V14.01,2017-05-26 13:40:00,
2017-05-26 09:45:00,48.9,44.6,29.54,West,260,4.0,16.0,85,0.01,,---,1.39,VWS V14.01,2017-05-26 13:45:00,
2017-05-26 09:50:00,49.9,45.3,29.53,West,277,6.0,16.0,84,0.01,,---,1.39,VWS V14.01,2017-05-26 13:50:00,
2017-05-26 09:55:00,50.2,45.6,29.53,WNW,288,5.0,16.0,84,0.01,,---,1.39,VWS V14.01,2017-05-26 13:55:00,
2017-05-26 10:00:00,49.8,45.5,29.53,WNW,302,2.0,16.0,85,0.01,,---,1.39,VWS V14.01,2017-05-26 14:00:00,
2017-05-26 10:05:00,49.7,45.4,29.54,North,351,3.0,8.0,85,0.01,,---,1.39,VWS V14.01,2017-05-26 14:05:00,
2017-05-26 10:10:00,49.7,45.4,29.54,WSW,250,2.0,11.0,85,0.01,,---,1.39,VWS V14.01,2017-05-26 14:10:00,
2017-05-26 10:15:00,49.9,45.6,29.54,WSW,256,2.0,13.0,85,0.01,,---,1.39,VWS V14.01,2017-05-26 14:15:00,
2017-05-26 10:20:00,49.8,45.5,29.53,NW,314,5.0,13.0,85,0.01,,---,1.39,VWS V14.01,2017-05-26 14:20:00,
2017-05-26 10:25:00,49.4,45.1,29.53,NW,309,0.0,18.0,85,0.01,,---,1.39,VWS V14.01,2017-05-26 14:25:00,
2017-05-26 10:30:00,49.2,45.2,29.53,NNW,346,3.0,18.0,86,0.01,,---,1.39,VWS V14.01,2017-05-26 14:30:00,
2017-05-26 10:35:00,49.5,45.2,29.53,NW,317,3.0,11.0,85,0.00,,---,1.39,VWS V14.01,2017-05-26 14:35:00,
2017-05-26 10:40:00,49.1,44.8,29.53,NW,306,9.0,15.0,85,0.00,,---,1.39,VWS V14.01,2017-05-26 14:40:00,
2017-05-26 10:45:00,49.1,44.8,29.53,WSW,237,3.0,21.0,85,0.00,,---,1.39,VWS V14.01,2017-05-26 14:45:00,
2017-05-26 10:50:00,49.0,44.7,29.53,West,263,1.0,21.0,85,0.00,,---,1.39,VWS V14.01,2017-05-26 14:50:00,
2017-05-26 10:55:00,49.4,45.1,29.53,SW,235,5.0,21.0,85,0.00,,---,1.39,VWS V14.01,2017-05-26 14:55:00,
2017-05-26 11:00:00,49.3,45.0,29.53,NNE,13,5.0,21.0,85,0.00,,---,1.39,VWS V14.01,2017-05-26 15:00:00,
2017-05-26 11:05:00,49.5,45.2,29.53,NW,321,4.0,8.0,85,0.01,,---,1.40,VWS V14.01,2017-05-26 15:05:00,
2017-05-26 11:10:00,49.5,45.2,29.54,West,270,1.0,15.0,85,0.02,,---,1.41,VWS V14.01,2017-05-26 15:10:00,
2017-05-26 11:15:00,49.4,45.1,29.54,West,263,1.0,15.0,85,0.02,,---,1.41,VWS V14.01,2017-05-26 15:15:00,
2017-05-26 11:20:00,49.4,45.1,29.54,WSW,248,0.0,15.0,85,0.03,,---,1.42,VWS V14.01,2017-05-26 15:20:00,
2017-05-26 11:25:00,49.7,45.4,29.54,NNW,338,10.0,15.0,85,0.05,,---,1.44,VWS V14.01,2017-05-26 15:25:00,
2017-05-26 11:30:00,49.4,45.1,29.54,WNW,292,4.0,15.0,85,0.06,,---,1.45,VWS V14.01,2017-05-26 15:30:00,
2017-05-26 11:35:00,49.7,45.4,29.53,North,5,2.0,7.0,85,0.06,,---,1.45,VWS V14.01,2017-05-26 15:35:00,
2017-05-26 11:40:00,49.9,45.3,29.53,NW,306,2.0,18.0,84,0.06,,---,1.45,VWS V14.01,2017-05-26 15:40:00,
2017-05-26 11:45:00,50.0,45.4,29.53,WNW,290,3.0,18.0,84,0.06,,---,1.45,VWS V14.01,2017-05-26 15:45:00,
2017-05-26 11:50:00,50.2,45.6,29.53,NW,318,0.0,18.0,84,0.06,,---,1.45,VWS V14.01,2017-05-26 15:50:00,
2017-05-26 11:55:00,50.8,46.2,29.52,NNE,15,2.0,18.0,84,0.06,,---,1.45,VWS V14.01,2017-05-26 15:55:00,
2017-05-26 12:00:00,50.7,46.0,29.52,West,273,12.0,18.0,84,0.06,,---,1.45,VWS V14.01,2017-05-26 16:00:00,
2017-05-26 12:05:00,50.5,45.8,29.53,NW,323,5.0,12.0,84,0.05,,---,1.45,VWS V14.01,2017-05-26 16:05:00,
2017-05-26 12:10:00,50.2,45.9,29.53,WNW,294,5.0,13.0,85,0.05,,---,1.45,VWS V14.01,2017-05-26 16:10:00,
2017-05-26 12:15:00,49.8,45.5,29.53,WSW,240,6.0,14.0,85,0.05,,---,1.45,VWS V14.01,2017-05-26 16:15:00,
2017-05-26 12:20:00,49.9,45.6,29.53,WNW,292,3.0,14.0,85,0.05,,---,1.45,VWS V14.01,2017-05-26 16:20:00,
2017-05-26 12:24:00,49.6,45.3,29.53,West,269,1.0,16.0,85,0.05,,---,1.45,VWS V14.01,2017-05-26 16:24:00,
2017-05-26 12:29:00,49.7,45.4,29.53,WNW,294,2.0,16.0,85,0.05,,---,1.45,VWS V14.01,2017-05-26 16:29:00,
2017-05-26 12:34:00,50.0,45.7,29.53,West,272,2.0,9.0,85,0.00,,---,1.45,VWS V14.01,2017-05-26 16:34:00,
2017-05-26 12:39:00,49.9,45.6,29.53,WNW,285,0.0,11.0,85,0.00,,---,1.45,VWS V14.01,2017-05-26 16:39:00,
2017-05-26 12:44:00,50.1,45.8,29.53,West,270,0.0,15.0,85,0.00,,---,1.45,VWS V14.01,2017-05-26 16:44:00,
2017-05-26 12:45:00,50.1,45.8,29.53,West,273,0.0,15.0,85,0.00,,---,1.45,VWS V14.01,2017-05-26 16:45:00,
2017-05-26 12:50:00,50.2,45.9,29.53,NNW,340,5.0,15.0,85,0.00,,---,1.45,VWS V14.01,2017-05-26 16:50:00,
2017-05-26 12:55:00,50.2,45.9,29.53,West,277,2.0,15.0,85,0.00,,---,1.45,VWS V14.01,2017-05-26 16:55:00,
2017-05-26 13:00:00,50.7,46.0,29.53,WSW,252,5.0,15.0,84,0.00,,---,1.45,VWS V14.01,2017-05-26 17:00:00,
2017-05-26 13:05:00,50.2,45.9,29.53,NW,319,3.0,15.0,85,0.00,,---,1.45,VWS V14.01,2017-05-26 17:05:00,
2017-05-26 13:10:00,50.1,45.8,29.53,NNW,338,1.0,15.0,85,0.00,,---,1.45,VWS V14.01,2017-05-26 17:10:00,
2017-05-26 13:15:00,50.7,46.0,29.53,WSW,258,3.0,15.0,84,0.00,,---,1.45,VWS V14.01,2017-05-26 17:15:00,
2017-05-26 13:20:00,50.6,46.3,29.53,West,271,0.0,15.0,85,0.00,,---,1.45,VWS V14.01,2017-05-26 17:20:00,
2017-05-26 13:25:00,51.2,46.5,29.52,WSW,247,3.0,15.0,84,0.00,,---,1.45,VWS V14.01,2017-05-26 17:25:00,
2017-05-26 13:30:00,51.1,46.4,29.52,West,259,3.0,15.0,84,0.00,,---,1.45,VWS V14.01,2017-05-26 17:30:00,
2017-05-26 13:35:00,51.1,46.8,29.52,NW,316,1.0,13.0,85,0.00,,---,1.45,VWS V14.01,2017-05-26 17:35:00,
2017-05-26 13:40:00,51.3,47.0,29.52,West,274,4.0,13.0,85,0.00,,---,1.45,VWS V14.01,2017-05-26 17:40:00,
2017-05-26 13:45:00,51.3,47.0,29.52,WSW,238,4.0,13.0,85,0.00,,---,1.45,VWS V14.01,2017-05-26 17:45:00,
2017-05-26 13:50:00,51.5,47.2,29.52,WSW,249,2.0,13.0,85,0.00,,---,1.45,VWS V14.01,2017-05-26 17:50:00,
2017-05-26 13:55:00,51.6,47.2,29.52,West,274,11.0,13.0,85,0.00,,---,1.45,VWS V14.01,2017-05-26 17:55:00,
2017-05-26 14:00:00,51.5,47.5,29.52,WSW,240,8.0,15.0,86,0.00,,---,1.45,VWS V14.01,2017-05-26 18:00:00,
2017-05-26 14:01:00,51.4,47.7,29.52,NNW,344,3.0,15.0,87,0.00,,---,1.45,VWS V14.01,2017-05-26 18:01:00,
2017-05-26 14:06:00,51.3,47.9,29.52,WSW,247,4.0,12.0,88,0.00,,---,1.45,VWS V14.01,2017-05-26 18:06:00,
2017-05-26 14:11:00,51.2,47.8,29.53,West,279,9.0,12.0,88,0.00,,---,1.45,VWS V14.01,2017-05-26 18:11:00,
2017-05-26 14:16:00,51.3,47.9,29.52,WSW,254,3.0,13.0,88,0.00,,---,1.45,VWS V14.01,2017-05-26 18:16:00,
2017-05-26 14:21:00,51.2,47.8,29.53,WNW,285,2.0,14.0,88,0.00,,---,1.45,VWS V14.01,2017-05-26 18:21:00,
2017-05-26 14:26:00,51.0,47.9,29.53,WNW,294,5.0,14.0,89,0.00,,---,1.45,VWS V14.01,2017-05-26 18:26:00,
2017-05-26 14:31:00,50.9,47.8,29.53,West,277,2.0,14.0,89,0.00,,---,1.45,VWS V14.01,2017-05-26 18:31:00,
2017-05-26 14:36:00,51.2,47.8,29.53,West,270,2.0,11.0,88,0.00,,---,1.45,VWS V14.01,2017-05-26 18:36:00,
2017-05-26 14:41:00,51.4,48.0,29.53,West,268,8.0,11.0,88,0.00,,---,1.45,VWS V14.01,2017-05-26 18:41:00,
2017-05-26 14:46:00,51.7,48.3,29.53,West,259,0.0,11.0,88,0.00,,---,1.45,VWS V14.01,2017-05-26 18:46:00,
2017-05-26 14:51:00,52.1,48.4,29.53,West,265,0.0,11.0,87,0.00,,---,1.45,VWS V14.01,2017-05-26 18:51:00,
2017-05-26 14:56:00,52.0,48.6,29.53,West,264,4.0,13.0,88,0.00,,---,1.45,VWS V14.01,2017-05-26 18:56:00,
2017-05-26 15:02:00,51.8,48.7,29.54,West,265,8.0,16.0,89,0.00,,---,1.45,VWS V14.01,2017-05-26 19:02:00,
2017-05-26 15:03:00,51.8,48.7,29.54,West,271,7.0,7.0,89,0.00,,---,1.45,VWS V14.01,2017-05-26 19:03:00,
2017-05-26 15:13:00,51.6,48.5,29.53,WNW,298,3.0,13.0,89,0.00,,---,1.45,VWS V14.01,2017-05-26 19:13:00,
2017-05-26 15:18:00,51.7,48.6,29.53,West,270,7.0,13.0,89,0.00,,---,1.45,VWS V14.01,2017-05-26 19:18:00,
2017-05-26 15:23:00,51.8,48.7,29.54,WSW,238,5.0,13.0,89,0.00,,---,1.45,VWS V14.01,2017-05-26 19:23:00,
2017-05-26 15:28:00,51.9,48.8,29.53,WSW,257,2.0,13.0,89,0.00,,---,1.45,VWS V14.01,2017-05-26 19:28:00,
2017-05-26 15:33:00,52.1,48.7,29.53,West,277,2.0,3.0,88,0.00,,---,1.45,VWS V14.01,2017-05-26 19:33:00,
2017-05-26 15:38:00,52.2,49.1,29.53,WNW,284,2.0,12.0,89,0.00,,---,1.45,VWS V14.01,2017-05-26 19:38:00,
2017-05-26 15:43:00,52.5,49.4,29.53,WNW,286,2.0,13.0,89,0.00,,---,1.45,VWS V14.01,2017-05-26 19:43:00,
2017-05-26 15:48:00,52.8,49.7,29.53,WSW,244,2.0,13.0,89,0.00,,---,1.45,VWS V14.01,2017-05-26 19:48:00,
2017-05-26 15:53:00,53.2,50.0,29.54,SW,229,3.0,13.0,89,0.00,,---,1.45,VWS V14.01,2017-05-26 19:53:00,
2017-05-26 15:58:00,53.7,50.5,29.54,WSW,246,4.0,13.0,89,0.00,,---,1.45,VWS V14.01,2017-05-26 19:58:00,
2017-05-26 16:03:00,54.3,51.1,29.53,SW,231,3.0,5.0,89,0.00,,---,1.45,VWS V14.01,2017-05-26 20:03:00,
2017-05-26 16:08:00,54.5,51.3,29.54,West,274,6.0,13.0,89,0.00,,---,1.45,VWS V14.01,2017-05-26 20:08:00,
2017-05-26 16:13:00,54.3,50.8,29.54,West,281,6.0,13.0,88,0.00,,---,1.45,VWS V14.01,2017-05-26 20:13:00,
2017-05-26 16:18:00,54.1,50.6,29.54,WSW,251,4.0,13.0,88,0.00,,---,1.45,VWS V14.01,2017-05-26 20:18:00,
2017-05-26 16:23:00,54.1,50.6,29.54,West,262,8.0,13.0,88,0.00,,---,1.45,VWS V14.01,2017-05-26 20:23:00,
2017-05-26 16:24:00,54.1,50.6,29.54,WSW,244,8.0,13.0,88,0.00,,---,1.45,VWS V14.01,2017-05-26 20:24:00,
2017-05-26 16:29:00,54.1,50.6,29.55,WSW,244,5.0,13.0,88,0.00,,---,1.45,VWS V14.01,2017-05-26 20:29:00,
2017-05-26 16:34:00,54.3,50.8,29.55,WSW,251,4.0,5.0,88,0.00,,---,1.45,VWS V14.01,2017-05-26 20:34:00,
2017-05-26 16:39:00,54.4,50.9,29.55,West,273,3.0,12.0,88,0.00,,---,1.45,VWS V14.01,2017-05-26 20:39:00,
2017-05-26 16:44:00,54.2,50.7,29.56,WSW,243,4.0,12.0,88,0.00,,---,1.45,VWS V14.01,2017-05-26 20:44:00,
2017-05-26 16:49:00,54.0,50.5,29.56,West,271,2.0,12.0,88,0.00,,---,1.45,VWS V14.01,2017-05-26 20:49:00,
2017-05-26 16:54:00,53.4,49.9,29.56,WSW,251,9.0,12.0,88,0.00,,---,1.45,VWS V14.01,2017-05-26 20:54:00,
2017-05-26 16:59:00,53.1,50.0,29.56,West,259,4.0,12.0,89,0.00,,---,1.45,VWS V14.01,2017-05-26 20:59:00,
2017-05-26 17:04:00,52.9,49.8,29.56,West,274,3.0,7.0,89,0.00,,---,1.45,VWS V14.01,2017-05-26 21:04:00,
2017-05-26 17:09:00,52.9,49.8,29.56,WSW,248,4.0,8.0,89,0.00,,---,1.45,VWS V14.01,2017-05-26 21:09:00,
2017-05-26 17:14:00,52.9,49.8,29.57,West,261,2.0,9.0,89,0.00,,---,1.45,VWS V14.01,2017-05-26 21:14:00,
2017-05-26 17:19:00,53.0,49.8,29.57,West,261,0.0,9.0,89,0.00,,---,1.45,VWS V14.01,2017-05-26 21:19:00,
2017-05-26 17:24:00,53.0,49.8,29.57,West,274,3.0,9.0,89,0.00,,---,1.45,VWS V14.01,2017-05-26 21:24:00,